PulseSat

PulseSat

GORIZONT 16 [-]

Last updated on Dec. 18, 2017, 12:19 a.m. UTC

1 19397U 88071A   17351.39247323 -.00000298  00000-0  00000-0 0  9993
2 19397  14.8115 355.8664 0014578 343.8468 195.8573  0.99978046107209
UTC
Height (km)
Latitude
Longitude
Inclination
Orbital Period

Next 30 passes for location: Hong Kong

Rise time Rise Azimuth (degrees) Set time Set Azimuth (degrees) Duration Max altitude (degrees)

No matching passes for this satellites

PulseSat

PulseSat is the new satellites software and hardware trackering solution by Pulsely.
Satellite Two Line Element Set source: US Air Force Space Command

Download PulseSat for iOS
© 2017 Pulsely Limited